Dallas Love, TX

7:59 AM CDT on July 21, 2017 (GMT -0500)
Dallas Love

Weather History for KDAL - February, 2013

Change the Weather History Date:

Tuesday, February 19, 2013

  Actual Average Record
Temperature  
Mean Temperature 52 °F -  
Max Temperature 62 °F 60 °F 77 °F (2016)
Min Temperature 43 °F 41 °F 24 °F (2006)
Degree Days  
Heating Degree Days 12    
Growing Degree Days 2 (Base 50)    
Moisture  
Dew Point 23 °F    
Average Humidity 33    
Maximum Humidity 51    
Minimum Humidity 18    
Precipitation  
Precipitation 0.00 in - - ()
Sea Level Pressure  
Sea Level Pressure 30.21 in    
Wind  
Wind Speed 8 mph (East)    
Max Wind Speed 15 mph    
Max Gust Speed 23 mph    
Visibility 10 miles    
Events Rain    
Averages and records for this station are not official NWS values.
T = Trace of Precipitation, MM = Missing Value Source: NWS Daily Summary

Daily Weather History Graph

Daily Weather History Graph

Search for Another Location

Airport or City:

Trip Planner

Search our weather history database for the weather conditions in past years. The results will help you decide how hot, cold, wet, or windy it might be!

Date:

Astronomy

Feb. 19, 2013 Rise Set
Actual Time 7:06 AM CST 6:16 PM CST
Civil Twilight 6:41 AM CST 6:41 PM CST
Nautical Twilight 6:12 AM CST 7:10 PM CST
Astronomical Twilight 5:43 AM CST 7:39 PM CST
Moon 12:58 PM CST (2/19) 2:29 AM CST (2/19)
Length of Visible Light 12h 00m
Length of Day
11h 10m
Waxing Gibbous, 67% of the Moon is Illuminated
Feb 19
Waxing Gibbous
Feb 25
Full
Mar 4
Last Quarter
Mar 11
New
Mar 19
First Quarter

Hourly Weather History & Observations

Time (CST) Temp. Windchill Dew Point Humidity Pressure Visibility Wind Dir Wind Speed Gust Speed Precip Events Conditions
12:53 AM 50.0 °F - 28.9 °F 44% 30.14 in 10.0 mi NNW 8.1 mph - N/A   Clear
1:53 AM 50.0 °F - 27.0 °F 41% 30.14 in 10.0 mi North 8.1 mph - N/A   Clear
2:53 AM 50.0 °F - 25.0 °F 38% 30.12 in 10.0 mi NE 15.0 mph 23.0 mph N/A   Partly Cloudy
3:53 AM 48.0 °F - 26.1 °F 42% 30.15 in 10.0 mi NE 4.6 mph - N/A   Scattered Clouds
4:53 AM 46.0 °F 43.1 °F 27.0 °F 47% 30.18 in 10.0 mi ENE 5.8 mph - N/A   Mostly Cloudy
5:53 AM 44.1 °F - 27.0 °F 51% 30.22 in 10.0 mi Calm Calm - N/A   Scattered Clouds
6:53 AM 43.0 °F - 26.1 °F 51% 30.25 in 10.0 mi Calm Calm - N/A   Scattered Clouds
7:53 AM 45.0 °F - 26.1 °F 48% 30.31 in 10.0 mi Calm Calm - N/A   Mostly Cloudy
8:53 AM 48.0 °F - 23.0 °F 37% 30.32 in 10.0 mi East 6.9 mph - N/A   Scattered Clouds
9:53 AM 51.1 °F - 21.0 °F 31% 30.33 in 10.0 mi East 6.9 mph - N/A   Partly Cloudy
10:53 AM 53.6 °F - 21.2 °F 28% 30.33 in 10.0 mi ENE 8.1 mph - N/A   Partly Cloudy
12:53 PM 59.0 °F - 19.9 °F 22% 30.28 in 10.0 mi ENE 11.5 mph 16.1 mph N/A   Partly Cloudy
1:53 PM 60.1 °F - 19.9 °F 21% 30.25 in 10.0 mi ENE 9.2 mph - N/A   Scattered Clouds
2:53 PM 62.1 °F - 19.0 °F 19% 30.21 in 10.0 mi ESE 11.5 mph - N/A   Mostly Cloudy
3:53 PM 62.1 °F - 18.0 °F 18% 30.18 in 10.0 mi East 9.2 mph 17.3 mph N/A   Mostly Cloudy
4:53 PM 61.0 °F - 19.0 °F 20% 30.17 in 10.0 mi East 13.8 mph 17.3 mph N/A   Mostly Cloudy
6:53 PM 59.0 °F - 19.0 °F 21% 30.18 in 10.0 mi ESE 9.2 mph - N/A   Overcast
7:53 PM 57.9 °F - 19.9 °F 23% 30.17 in 10.0 mi East 9.2 mph - N/A   Overcast
8:53 PM 57.0 °F - 21.0 °F 25% 30.18 in 10.0 mi ESE 10.4 mph - N/A   Overcast
9:53 PM 57.0 °F - 23.0 °F 27% 30.18 in 10.0 mi ESE 12.7 mph - 0.00 in Rain Light Rain
10:53 PM 54.0 °F - 28.9 °F 38% 30.17 in 10.0 mi ESE 12.7 mph - 0.00 in Rain Light Rain
11:53 PM 54.0 °F - 27.0 °F 35% 30.15 in 10.0 mi East 11.5 mph - 0.00 in   Overcast